FW7738 Weather Reports


time (UTC)temp
C
wind
direction
speed
KPH
gust
KPH
rain 1hr
cm
rain 24hr
cm
rain mn
cm
humidity
%
barometer
mb
20260508133044 18 83 4.8 12.9 0.00 0.84 0.00 70 1011.6
20260508132020 18 51 3.2 6.4 0.00 0.84 0.00 71 1012.0
20260508131035 18 47 3.2 9.7 0.00 0.84 0.00 71 1012.2
20260508130030 18 101 4.8 11.3 0.00 0.84 0.00 71 1012.4
20260508125025 17 82 3.2 9.7 0.00 0.84 0.00 72 1012.2
20260508124021 17 98 3.2 9.7 0.00 0.84 0.00 72 1012.4
20260508123016 17 84 1.6 4.8 0.00 0.84 0.00 72 1012.5
20260508122051 17 93 3.2 9.7 0.00 0.84 0.00 73 1012.5
20260508121027 17 110 3.2 6.4 0.00 0.84 0.00 77 1012.6
20260508120042 17 128 1.6 6.4 0.00 0.84 0.00 76 1012.6
20260508115018 17 128 1.6 4.8 0.00 0.84 0.00 76 1012.5
20260508114033 17 80 0.0 3.2 0.00 0.84 0.00 76 1012.4
20260508113028 17 68 0.0 1.6 0.00 0.84 0.00 76 1012.4
20260508112024 17 86 1.6 3.2 0.00 0.84 0.00 76 1012.3
20260508111019 17 82 3.2 4.8 0.00 0.84 0.00 76 1012.3
20260508110035 17 102 4.8 6.4 0.00 0.84 0.00 76 1012.4
20260508105051 17 91 4.8 9.7 0.00 0.86 0.00 77 1012.5
20260508104026 17 96 4.8 9.7 0.00 0.86 0.00 76 1012.5
20260508103042 17 105 3.2 4.8 0.00 0.86 0.00 75 1012.8
20260508102017 17 108 0.0 3.2 0.00 0.86 0.00 74 1012.9
20260508101032 17 89 1.6 4.8 0.00 0.86 0.00 74 1012.8
20260508100048 17 87 1.6 3.2 0.00 0.86 0.00 74 1012.6
20260508095023 17 91 1.6 6.4 0.00 0.86 0.00 74 1012.5
20260508094019 17 97 4.8 9.7 0.00 0.86 0.00 74 1012.3
20260508093034 17 75 0.0 3.2 0.00 0.86 0.00 71 1012.4
20260508092029 18 108 3.2 9.7 0.00 0.86 0.00 68 1012.6
20260508091044 17 23 0.0 1.6 0.00 0.86 0.00 68 1012.5
20260508090020 17 298 1.6 4.8 0.00 0.86 0.00 69 1012.6
20260508085035 16 279 3.2 6.4 0.00 0.86 0.00 71 1012.5
20260508084030 16 320 1.6 3.2 0.00 0.86 0.00 73 1012.2
20260508083046 15 7 4.8 11.3 0.00 0.86 0.00 75 1011.8
20260508082021 15 309 1.6 4.8 0.00 0.86 0.00 78 1011.9
20260508081016 14 327 3.2 9.7 0.00 0.86 0.00 78 1012.0
20260508080032 14 324 4.8 9.7 0.00 0.86 0.00 78 1012.0
20260508075027 14 293 4.8 9.7 0.00 0.86 0.00 78 1012.1
20260508074022 14 331 4.8 9.7 0.00 0.86 0.00 79 1011.9
20260508073018 13 302 4.8 9.7 0.00 0.86 0.00 79 1012.2
20260508072033 13 301 4.8 9.7 0.00 0.86 0.00 80 1012.1
20260508071029 13 318 4.8 9.7 0.00 0.86 0.00 81 1012.0
20260508070024 13 320 6.4 12.9 0.00 0.86 0.00 82 1012.2
20260508065059 13 286 3.2 6.4 0.00 0.86 0.00 82 1012.1
20260508064055 13 277 1.6 6.4 0.00 0.86 0.00 82 1011.9
20260508063030 12 355 3.2 9.7 0.00 0.86 0.00 82 1011.5
20260508062045 12 297 1.6 6.4 0.00 0.86 0.00 82 1011.6
20260508061021 12 313 3.2 6.4 0.00 0.86 0.00 83 1011.5
20260508060016 12 312 4.8 9.7 0.00 0.86 0.00 82 1011.4
20260508055032 12 299 3.2 9.7 0.00 0.86 0.00 84 1011.4
20260508054027 12 336 3.2 6.4 0.00 0.86 0.00 84 1011.0
20260508053022 12 295 6.4 11.3 0.00 0.86 0.00 85 1011.1
20260508052018 11 279 8.0 12.9 0.00 0.86 0.00 85 1010.9
20260508051034 11 288 6.4 12.9 0.00 0.86 0.00 86 1010.6
20260508050029 11 279 6.4 12.9 0.00 0.86 0.00 86 1010.5
20260508045024 12 272 4.8 12.9 0.00 0.86 0.00 85 1010.5
20260508044020 12 295 1.6 3.2 0.00 0.86 0.00 85 1010.4
20260508043035 12 309 1.6 4.8 0.00 0.86 0.00 85 1010.2
20260508042031 12 327 1.6 3.2 0.00 0.86 0.00 85 1010.4
20260508041046 12 323 0.0 6.4 0.00 0.86 0.00 85 1010.3
20260508040021 12 305 6.4 12.9 0.00 0.86 0.00 85 1010.1
20260508035017 12 303 6.4 16.1 0.00 0.86 0.00 85 1010.1
20260508034033 12 299 6.4 12.9 0.00 0.86 0.00 85 1010.2
20260508033027 12 301 4.8 11.3 0.00 0.86 0.00 84 1010.3
20260508032023 12 306 3.2 6.4 0.00 0.86 0.00 85 1010.5
20260508031019 12 337 0.0 3.2 0.00 0.86 0.00 85 1010.7
20260508030034 12 334 0.0 3.2 0.00 0.86 0.00 85 1010.7
20260508025050 12 0.0 0.0 0.00 0.86 0.00 85 1010.7
20260508024025 12 343 1.6 4.8 0.00 0.86 0.00 84 1010.9
20260508023020 12 305 1.6 4.8 0.00 0.86 0.00 83 1010.9
20260508022016 12 323 4.8 9.7 0.00 0.86 0.00 83 1010.6
20260508021031 12 312 8.0 12.9 0.00 0.86 0.00 83 1010.8
20260508020047 12 311 6.4 11.3 0.00 0.86 0.00 84 1011.1
20260508015022 13 289 6.4 11.3 0.00 0.86 0.00 84 1011.0
20260508014017 13 293 6.4 12.9 0.00 0.86 0.00 83 1010.9
20260508013033 13 299 6.4 11.3 0.00 0.86 0.00 83 1011.0
20260508012028 13 308 6.4 12.9 0.00 0.86 0.00 83 1011.2
20260508011023 13 304 8.0 12.9 0.00 0.86 0.00 83 1011.2
20260508010019 13 305 8.0 11.3 0.00 0.86 0.00 84 1011.3
20260508005034 13 298 8.0 14.5 0.00 0.86 0.00 86 1011.4
20260508004030 13 293 8.0 16.1 0.00 0.86 0.00 87 1011.5
20260508003025 13 290 6.4 12.9 0.00 0.86 0.00 88 1011.6
20260508002020 13 293 6.4 12.9 0.00 0.86 0.00 88 1011.6
20260508001035 13 281 8.0 12.9 0.00 0.86 0.00 88 1011.6
20260508000050 13 289 8.0 14.5 0.00 0.86 0.86 86 1011.7
20260507235026 13 291 6.4 12.9 0.00 0.86 0.86 83 1011.7
20260507234021 13 294 6.4 11.3 0.00 0.86 0.86 84 1011.8
20260507233016 13 304 8.0 11.3 0.00 0.86 0.86 86 1011.9
20260507232032 13 312 8.0 14.5 0.00 0.86 0.86 89 1012.0
20260507231047 13 299 6.4 12.9 0.00 0.86 0.86 90 1012.0
20260507230023 13 315 8.0 12.9 0.00 0.86 0.86 91 1011.9
20260507225018 13 314 6.4 11.3 0.00 0.86 0.86 91 1012.0
20260507224033 13 310 6.4 11.3 0.00 0.86 0.86 92 1012.1
20260507223049 13 322 6.4 11.3 0.00 0.86 0.86 93 1012.2
20260507222024 13 312 8.0 12.9 0.00 0.86 0.86 93 1012.2
20260507221020 13 312 6.4 11.3 0.00 0.86 0.86 93 1012.3
20260507220015 13 295 4.8 12.9 0.00 0.86 0.86 93 1012.2
20260507215031 13 307 4.8 11.3 0.00 0.86 0.86 93 1012.1
20260507214026 13 315 4.8 11.3 0.00 0.86 0.86 93 1012.0
20260507213022 13 307 4.8 11.3 0.00 0.86 0.86 93 1012.0
20260507212017 13 287 4.8 6.4 0.00 0.86 0.86 93 1011.8
20260507211032 13 288 4.8 6.4 0.00 0.86 0.86 93 1011.7
20260507210108 13 298 4.8 6.4 0.00 0.86 0.86 93 1011.6
20260507205023 13 307 4.8 6.4 0.00 0.86 0.86 93 1011.3
20260507204018 13 318 3.2 6.4 0.00 0.86 0.86 93 1011.3
20260507203034 13 350 1.6 3.2 0.00 0.86 0.86 93 1011.2
20260507202029 13 1 1.6 3.2 0.00 0.86 0.86 93 1011.3
20260507201024 13 14 0.0 1.6 0.03 0.86 0.86 92 1011.2
20260507200021 13 0.0 0.0 0.10 0.86 0.86 92 1011.1
20260507195036 13 345 1.6 4.8 0.15 0.86 0.86 91 1011.0
20260507194031 14 360 1.6 1.6 0.18 0.86 0.86 91 1010.9
20260507193047 13 112 0.0 1.6 0.23 0.86 0.86 90 1010.9
20260507192022 13 268 1.6 4.8 0.28 0.84 0.84 90 1010.7
20260507191038 13 296 3.2 4.8 0.33 0.84 0.84 91 1010.9
20260507190034 13 355 0.0 3.2 0.43 0.76 0.76 90 1011.2
20260507185029 13 315 4.8 9.7 0.56 0.71 0.71 90 1011.1
20260507184024 13 305 3.2 6.4 0.61 0.69 0.69 90 1011.1
20260507183040 13 308 3.2 9.7 0.58 0.64 0.64 90 1011.2
20260507182016 13 336 3.2 6.4 0.56 0.56 0.56 89 1011.0
20260507181031 13 317 8.0 12.9 0.51 0.51 0.51 89 1011.0
20260507180107 13 344 9.7 14.5 0.33 0.33 0.33 88 1010.9
20260507175022 13 354 9.7 14.5 0.15 0.15 0.15 87 1010.7
20260507174037 14 351 11.3 17.7 0.08 0.10 0.10 83 1010.6
20260507173113 16 329 14.5 25.7 0.05 0.05 0.05 73 1010.6
20260507172048 16 339 9.7 17.7 0.00 0.00 0.00 65 1010.7
20260507171024 17 351 12.9 27.4 0.00 0.00 0.00 67 1010.5
20260507170019 18 96 6.4 12.9 0.00 0.00 0.00 72 1010.2
20260507165035 18 71 4.8 14.5 0.00 0.00 0.00 69 1010.1
20260507164030 18 80 1.6 9.7 0.00 0.00 0.00 70 1010.0
20260507163026 18 75 3.2 9.7 0.00 0.00 0.00 70 1009.8
20260507162021 18 92 4.8 11.3 0.00 0.00 0.00 71 1009.7
20260507161056 18 83 3.2 12.9 0.00 0.00 0.00 68 1009.4
20260507160032 18 70 4.8 12.9 0.00 0.00 0.00 68 1009.5
20260507155047 18 68 4.8 12.9 0.00 0.00 0.00 68 1009.5
20260507154023 18 88 6.4 12.9 0.00 0.00 0.00 70 1009.6
20260507153018 18 93 11.3 20.9 0.00 0.00 0.00 73 1009.6
20260507152034 18 89 8.0 22.5 0.00 0.00 0.00 73 1009.4
20260507151029 18 99 9.7 24.1 0.00 0.00 0.00 73 1009.5
20260507150025 18 81 6.4 14.5 0.00 0.00 0.00 74 1009.5
20260507145020 18 90 8.0 17.7 0.00 0.00 0.00 74 1009.6
20260507144016 18 90 9.7 20.9 0.00 0.00 0.00 73 1009.7
20260507143111 18 96 11.3 24.1 0.00 0.00 0.00 73 1009.8
20260507142027 18 97 9.7 22.5 0.00 0.00 0.00 71 1009.9
20260507141042 19 85 8.0 20.9 0.00 0.00 0.00 69 1009.9
20260507140017 18 94 9.7 25.7 0.00 0.00 0.00 69 1009.9
20260507135053 18 89 12.9 29.0 0.00 0.00 0.00 69 1009.9
20260507134029 19 108 12.9 24.1 0.00 0.00 0.00 69 1010.0